Вернуться в каталог

STARLINK-36372

АктивенСвязьSSO
NORAD 67889·PAYLOAD·🇺🇸 United States

Запущен Feb 21, 2026 с Vandenberg Space Force Base

Loading…

Ближайшие Пролёты (ближайшие 24 часа)

TLE

СвежийSource: CelesTrak SupGP

Эпоха: Sep 15, 2026, 02:49 UTC

1 67889C 26035L   26258.11784722  .00072662  00000+0  22560-2 0  2586
2 67889  97.2850 190.0351 0001773  97.3170  46.4376 15.33395865    14

Отслеживайте STARLINK-36372 в реальном времени с AllMySat

Download on the App Store